GFSMA_con_3kmhel_108.txt.gz
Helicity
119 108 84 130 148 168 201 209 210 206 202 192 192 187 162 148 137 133 119 120 85 75 68 47 54 60 80 84 68 68 53 49 54 35 33 30 20 20 22 22 19 19 20
140 107 117 109 134 149 185 210 225 221 202 212 198 191 177 169 152 119 95 123 66 15 67 69 46 53 65 65 62 62 57 47 36 28 35 35 27 16 20 22 31 26 23
157 134 127 117 121 148 187 203 220 219 234 214 250 191 198 174 152 146 143 53 18 39 92 72 65 59 61 50 53 62 49 49 29 29 32 32 30 22 20 25 25 29 29
201 174 138 168 146 169 184 190 223 231 199 202 225 230 206 172 174 156 151 53 33 101 119 98 92 86 66 61 47 63 36 55 29 27 29 34 34 26 27 21 20 29 32
209 212 183 194 196 178 187 198 215 227 229 222 205 233 213 167 158 173 159 171 66 134 171 112 104 107 82 67 50 46 44 39 41 25 33 25 28 24 24 29 18 21 22
212 218 266 222 228 190 210 225 206 201 220 227 234 232 226 183 164 172 145 168 126 153 164 158 119 92 82 65 54 43 41 26 34 28 22 34 24 20 26 32 22 16 24
218 232 270 278 229 226 212 222 213 237 259 266 248 245 217 185 192 174 161 131 163 146 150 163 141 105 78 77 65 46 31 29 31 28 21 26 25 19 29 26 26 19 18
243 232 267 269 258 268 230 213 252 269 251 280 270 294 256 194 189 215 183 137 193 253 222 176 161 124 112 132 94 47 36 29 36 33 24 33 41 28 6 10 16 15 14
224 215 251 265 265 267 255 253 247 284 287 276 198 263 240 236 234 153 136 192 260 314 232 180 172 125 142 173 143 61 50 52 40 38 31 34 44 30 10 4 6 10 8
224 243 258 298 293 256 247 256 266 271 296 282 226 176 289 272 144 160 190 192 381 340 239 202 139 132 135 157 146 99 56 50 46 37 48 43 38 21 21 13 21 13 0
224 259 262 277 284 274 238 244 262 282 290 284 286 298 254 289 243 213 266 244 232 216 207 201 150 152 125 150 152 102 73 55 39 40 47 52 44 51 43 38 40 27 10
274 220 253 271 315 303 238 244 248 260 280 265 299 320 344 321 278 265 214 259 237 220 212 202 154 159 150 156 141 114 84 67 55 51 52 47 56 54 48 50 38 30 29
273 259 257 266 312 355 267 237 253 248 274 277 300 306 314 288 295 219 187 249 296 257 252 199 147 126 142 161 147 119 94 86 69 59 63 54 38 35 42 56 48 30 34
250 253 258 271 304 274 219 206 234 245 254 269 275 305 317 272 224 224 240 298 310 340 317 293 179 201 116 151 126 122 118 107 86 76 75 59 57 43 41 40 44 47 45
208 213 225 223 277 224 189 200 203 222 232 242 258 295 298 241 219 199 197 278 257 213 278 222 224 194 107 131 117 127 129 106 101 91 81 69 70 77 62 44 45 49 59
201 192 180 212 207 164 160 165 166 179 215 254 266 271 243 229 239 215 234 298 299 300 244 276 222 195 143 163 134 131 133 139 116 112 97 74 73 87 77 68 70 79 85
147 175 194 184 162 144 150 132 139 168 186 192 211 214 193 196 226 244 236 328 322 281 194 189 226 200 177 150 147 147 139 147 132 107 111 96 93 90 93 97 98 108 109
203 216 161 152 121 101 114 112 126 154 177 180 167 162 169 189 176 252 326 277 340 367 296 257 267 260 227 118 138 175 153 167 200 167 111 101 91 83 105 119 105 107 131
187 155 142 111 98 100 109 119 129 126 121 128 161 170 223 197 197 320 329 312 272 345 335 335 235 322 357 211 225 212 221 279 254 207 223 209 210 242 232 188 189 198 251
136 117 79 85 88 100 124 143 118 97 84 94 98 90 88 187 187 326 298 294 305 342 322 280 356 343 369 439 302 227 285 285 324 264 248 248 310 320 287 227 207 181 153
67 67 74 96 138 160 162 107 89 101 81 64 50 98 124 152 139 238 360 295 316 363 383 342 352 369 364 386 319 283 301 323 326 314 366 327 312 265 259 205 185 194 221
261 224 193 151 171 127 168 149 95 106 81 72 61 95 115 142 184 318 311 339 406 409 312 463 479 334 324 376 321 260 372 432 350 265 315 269 222 263 262 267 258 268 286
256 265 220 162 148 167 201 161 155 110 98 82 58 71 101 109 140 179 382 424 568 458 358 435 376 395 377 335 422 328 302 262 269 294 322 272 276 355 358 325 298 267 312
264 252 252 243 179 153 204 160 137 153 148 152 141 103 86 152 305 351 425 619 701 834 759 684 563 484 380 394 373 308 340 367 344 403 473 466 426 406 379 377 307 337 346
296 311 307 282 292 258 224 196 133 155 208 201 192 198 128 119 166 356 453 631 769 853 724 829 586 546 537 438 362 301 284 308 390 448 496 436 470 457 420 352 361 352 330
82 139 380 413 414 291 349 244 216 145 211 200 230 253 269 158 179 156 159 301 564 524 475 381 437 443 417 508 557 497 470 460 507 435 441 447 413 432 417 408 409 407 429

GFSMA_con_3kmhel_111.txt.gz
Helicity
119 118 135 105 89 96 103 114 112 101 102 96 91 90 88 73 77 73 63 77 110 76 92 88 61 56 57 68 76 85 73 64 64 43 21 31 28 32 29 15 10 6 10
157 146 138 139 90 84 102 100 107 106 99 107 98 100 92 89 100 97 98 92 65 192 58 60 50 44 54 60 86 79 51 64 67 47 13 26 24 35 29 15 4 4 6
159 170 166 140 139 101 95 94 87 93 85 104 100 111 124 115 109 108 112 158 80 60 89 2 31 46 46 48 55 54 59 65 56 50 24 16 23 36 29 20 10 12 15
166 182 172 143 148 175 126 110 108 111 87 105 109 123 138 127 116 114 129 175 116 69 49 53 20 52 67 55 39 45 59 53 50 42 43 14 25 28 26 20 18 8 13
210 177 203 183 179 172 202 155 127 118 108 118 116 110 120 142 135 130 132 139 112 123 15 -65 60 93 93 73 52 33 47 44 47 40 49 38 21 15 21 19 14 15 25
219 163 202 226 218 227 204 228 193 140 117 108 114 118 130 140 128 144 117 116 139 126 84 32 95 103 115 97 64 43 44 37 39 45 40 46 27 17 18 21 21 16 17
211 207 203 257 238 233 230 254 244 198 201 193 182 167 159 122 142 156 146 146 147 108 106 69 146 118 99 92 75 55 39 44 34 32 46 45 30 20 13 27 25 18 16
194 257 237 272 282 268 268 264 263 281 218 246 234 229 197 156 182 214 148 142 184 168 112 166 144 129 96 87 63 57 53 44 48 27 42 38 37 30 16 27 31 25 10
216 265 266 231 253 293 285 278 263 267 254 265 223 267 248 223 195 187 184 154 150 196 147 196 167 160 112 93 87 83 81 76 63 41 38 36 42 43 24 30 31 28 13
233 252 288 219 238 284 287 279 279 248 254 242 246 212 255 286 196 159 144 120 149 167 215 261 266 238 164 108 93 102 112 80 77 55 43 43 45 47 32 33 37 22 19
217 264 287 259 217 252 267 280 288 243 233 256 272 287 177 209 213 233 173 133 182 153 201 325 293 222 176 156 112 139 130 88 78 64 49 50 43 60 58 56 45 26 31
294 274 249 253 221 213 202 266 272 242 242 224 228 245 301 257 286 305 243 198 142 161 204 259 313 229 180 178 107 133 115 82 91 71 59 46 51 65 64 65 48 36 37
277 251 275 254 246 225 208 256 260 260 214 206 221 241 261 247 279 235 242 224 234 201 206 212 215 207 193 125 96 123 123 91 91 96 63 60 56 59 63 63 49 35 37
211 250 249 235 218 223 228 249 222 249 215 183 191 230 265 268 292 312 269 220 202 259 322 237 225 197 166 130 139 127 107 94 91 103 88 67 64 62 66 60 55 52 58
208 207 199 208 191 224 241 232 245 235 206 178 182 216 249 263 275 271 286 264 226 182 255 220 238 211 216 195 146 92 80 90 87 115 103 91 82 75 61 47 48 61 75
177 195 190 170 238 229 215 234 228 184 168 163 190 205 220 237 255 265 270 207 206 197 186 186 268 245 236 218 184 79 66 123 108 106 122 106 91 80 74 60 52 53 64
204 199 164 162 195 202 211 265 189 170 131 141 161 161 179 219 242 231 235 155 206 206 125 165 207 278 205 194 169 118 101 97 95 105 120 117 107 91 80 80 82 96 93
192 195 187 188 175 168 208 202 145 126 114 94 100 142 160 218 203 178 200 219 183 186 180 134 239 247 258 163 174 160 139 111 113 133 117 123 137 136 136 118 108 110 118
216 193 172 146 143 168 181 164 121 105 104 114 120 128 101 104 154 160 251 240 279 244 243 226 292 275 221 175 201 243 162 168 280 227 251 188 155 150 152 159 165 171 180
214 204 218 230 206 217 225 178 127 114 100 87 74 57 76 79 122 136 224 239 241 254 332 282 357 350 270 237 236 312 439 403 364 332 356 315 306 305 286 278 259 256 301
482 501 436 422 327 231 183 164 130 102 91 82 84 60 60 62 83 111 129 114 247 288 336 332 340 352 342 379 367 370 407 489 436 365 425 397 374 361 348 355 333 293 352
383 341 435 412 322 196 270 243 176 105 100 96 88 80 72 70 63 119 102 100 238 294 329 383 341 326 339 396 403 471 554 506 423 338 441 455 380 422 393 330 338 460 336
460 510 318 273 257 271 298 221 224 157 131 133 110 83 84 80 70 84 107 169 202 383 323 306 327 265 381 470 457 547 562 471 445 397 442 496 424 420 442 391 357 323 273
366 333 302 219 170 175 278 241 169 178 185 182 160 114 63 60 58 75 130 167 256 320 494 352 317 352 462 417 519 561 506 616 502 458 526 575 531 549 503 459 288 281 319
259 272 217 172 137 190 289 380 303 235 224 238 217 206 150 107 106 101 135 193 265 295 429 563 828 782 833 923 854 668 579 562 425 398 375 499 449 556 528 458 346 448 352
103 137 181 258 255 192 196 300 312 275 298 267 214 230 304 230 214 174 134 151 277 202 276 503 741 1014 1057 935 956 699 583 506 605 462 456 547 614 631 536 586 625 536 396

GFSMA_con_3kmhel_114.txt.gz
Helicity
97 93 75 69 72 44 40 46 51 64 57 49 49 49 41 41 47 46 67 88 55 58 70 72 84 83 94 70 87 112 80 105 90 80 67 44 24 30 30 28 25 24 21
101 119 89 87 69 77 46 34 33 49 50 45 48 44 38 52 51 52 48 88 102 74 91 89 192 85 74 53 75 69 87 74 80 73 53 54 28 32 32 34 31 22 15
84 125 154 80 94 78 70 64 27 32 46 67 42 47 33 51 51 65 94 81 103 112 137 74 152 43 57 38 44 74 71 51 78 60 48 59 45 32 36 40 22 19 10
120 92 159 153 133 132 105 75 80 46 45 69 59 64 51 53 57 78 92 117 112 139 116 126 31 38 24 48 36 37 51 66 80 60 58 53 61 43 35 20 22 21 19
133 126 117 166 188 216 151 91 88 97 71 87 86 86 65 70 64 79 93 126 115 168 167 112 128 42 21 33 34 26 31 46 57 61 59 50 62 46 33 11 25 23 17
125 155 105 140 181 217 174 176 129 120 112 106 96 94 83 85 73 86 118 114 109 126 154 130 118 73 67 44 56 47 36 41 45 47 49 51 48 49 33 23 22 18 21
122 136 139 141 207 210 194 201 244 191 180 166 168 136 126 138 114 94 87 109 115 95 132 130 103 106 104 74 93 65 41 38 35 48 56 56 45 43 48 30 26 19 21
139 148 167 172 238 226 204 215 284 314 288 254 260 199 176 150 145 121 116 130 177 120 151 131 100 105 91 168 83 92 55 53 39 49 68 75 66 48 41 34 33 26 20
167 184 200 225 256 266 269 233 231 302 320 290 205 224 218 208 153 132 126 114 150 190 156 181 143 66 87 85 63 96 84 67 67 61 61 70 75 60 29 27 30 39 29
196 205 198 234 269 278 265 286 241 249 300 318 288 147 135 188 215 178 122 111 109 132 138 141 143 102 133 100 60 99 122 67 110 77 68 61 71 71 56 36 31 34 39
209 234 234 223 268 257 267 303 272 237 259 311 320 299 169 135 161 199 123 137 125 113 115 200 163 166 190 167 151 142 158 108 107 100 68 63 68 74 59 43 37 28 25
246 228 255 250 262 244 259 313 261 224 238 279 277 188 192 204 162 203 160 115 117 111 127 153 185 202 229 225 228 138 175 128 100 106 88 82 71 74 72 64 48 36 36
241 270 313 306 264 260 263 254 234 208 199 255 240 196 147 127 143 109 133 128 120 116 154 133 183 234 248 318 203 156 142 148 94 120 80 98 96 89 88 88 71 47 45
198 205 275 287 268 250 249 225 248 227 199 204 178 206 137 129 112 122 160 124 190 183 214 179 121 192 238 259 238 144 159 148 125 118 92 86 112 119 103 101 91 75 56
164 161 203 225 265 246 235 218 254 226 203 206 168 176 160 123 108 138 173 194 202 158 208 211 154 130 216 238 191 187 115 89 119 133 106 80 113 120 111 106 103 94 72
79 84 103 150 202 209 242 233 245 219 206 215 220 197 172 137 153 158 202 214 221 192 137 181 108 108 128 200 176 186 161 119 143 117 111 85 82 113 114 121 109 102 99
85 103 101 164 207 216 206 210 224 211 201 189 218 197 127 139 170 196 200 219 241 246 226 165 152 159 179 171 176 218 171 147 127 121 123 94 78 90 118 123 110 93 97
148 142 152 199 239 208 195 204 210 209 195 232 205 163 121 152 111 98 136 195 222 196 216 178 164 254 189 188 213 256 261 217 207 102 100 125 106 99 110 130 131 114 106
193 205 222 218 250 253 220 256 222 202 219 237 150 115 75 81 79 103 128 170 186 185 174 203 189 211 226 180 216 226 216 196 236 256 120 159 137 109 125 131 146 154 146
367 423 453 432 470 471 469 445 360 295 265 193 130 94 87 85 75 75 99 99 127 195 194 283 230 293 337 277 265 233 230 252 360 396 415 310 216 176 164 167 183 211 247
588 569 587 609 570 567 501 397 297 232 187 114 82 110 128 153 124 89 83 77 100 163 202 287 227 259 307 356 294 312 289 429 536 506 489 322 325 339 314 293 309 332 385
679 645 606 526 482 384 448 412 298 284 186 194 189 198 187 145 140 112 64 55 56 100 187 196 206 203 297 371 350 333 386 526 413 414 561 564 491 469 392 398 411 463 470
694 644 562 389 317 333 391 350 353 275 216 208 187 162 145 136 126 113 106 83 136 202 188 156 182 312 253 354 372 391 427 486 487 576 732 716 677 622 530 466 459 474 450
637 601 473 432 380 402 380 227 291 230 210 190 168 166 153 147 138 122 79 69 129 161 144 150 179 225 338 376 436 495 462 625 692 619 744 717 672 671 587 575 481 443 398
462 496 410 428 307 315 311 235 155 192 169 182 186 228 216 178 229 162 90 87 132 147 85 180 351 445 540 630 420 431 606 734 933 851 833 847 734 785 723 639 475 341 415
189 196 175 201 275 252 362 308 224 171 165 197 219 167 274 215 243 231 158 169 167 170 169 196 180 259 407 453 750 829 645 627 795 840 816 981 759 794 737 694 482 493 341

GFSMA_con_3kmhel_117.txt.gz
Helicity
86 31 48 71 62 45 50 63 63 37 37 37 73 87 49 33 26 70 102 86 94 72 55 62 68 125 119 106 110 108 126 110 98 89 94 61 50 60 32 37 46 38 28
94 47 30 15 66 61 56 60 66 79 65 54 40 68 62 45 35 61 103 91 97 92 78 76 61 77 107 113 97 108 114 114 96 100 97 56 49 59 39 30 29 25 21
94 109 58 24 42 61 75 79 61 80 69 44 40 57 44 48 69 73 55 123 101 108 112 87 88 65 110 156 76 76 83 101 74 89 83 64 48 61 45 35 26 22 18
103 140 132 73 74 42 101 101 84 80 93 72 66 61 63 47 78 99 76 90 148 105 174 147 139 111 89 144 45 32 31 40 44 76 77 69 44 58 63 47 26 20 16
119 149 131 134 111 100 122 95 102 129 94 80 94 87 62 57 68 87 93 133 116 159 171 204 209 138 99 108 109 23 16 11 29 64 84 71 60 57 55 46 24 26 23
129 147 162 145 149 165 166 122 106 115 94 118 130 118 111 75 71 101 95 139 145 167 202 255 264 163 113 66 69 20 -2 17 30 47 67 69 69 71 65 53 37 38 21
135 135 144 151 177 199 229 187 139 137 147 157 146 139 144 137 114 101 81 134 168 162 189 186 205 173 160 80 76 20 -1 7 45 48 63 78 72 78 74 57 51 49 29
174 178 153 179 216 192 219 183 168 187 180 200 207 216 213 180 141 134 136 131 179 147 172 192 162 151 170 165 164 41 16 13 50 57 74 73 76 73 70 66 51 51 37
205 194 186 224 241 256 235 236 215 241 243 239 228 298 224 184 132 132 119 117 166 158 122 181 211 151 198 167 129 53 69 54 61 66 84 82 79 76 76 65 68 63 42
224 219 206 224 262 303 233 241 255 285 289 298 280 203 182 181 161 162 178 127 99 158 137 134 178 164 166 132 141 149 72 83 110 89 98 103 98 84 78 73 53 60 63
201 229 229 261 286 298 231 227 244 289 348 301 317 254 180 168 197 210 210 202 142 118 123 122 127 135 147 144 164 169 118 86 100 109 114 114 107 98 87 92 67 54 66
238 208 237 258 310 292 241 230 246 245 312 312 290 256 243 217 200 221 179 173 194 154 114 132 183 136 134 139 150 196 170 117 99 120 146 112 111 115 98 78 82 67 61
202 200 236 294 325 315 266 251 264 260 251 304 340 216 191 168 148 183 164 154 133 118 164 175 155 133 162 160 156 155 196 197 161 144 141 129 107 105 102 80 99 93 77
165 168 190 249 279 265 293 295 278 263 250 278 264 216 165 164 182 162 190 134 130 130 147 154 149 141 194 180 192 194 184 203 214 145 168 145 115 115 120 85 101 114 101
152 126 133 164 234 287 262 304 329 258 252 256 227 200 165 128 139 179 151 135 127 117 163 128 134 198 174 185 185 200 160 192 178 153 178 127 126 120 115 96 127 149 130
92 122 86 164 210 254 284 273 263 253 251 228 223 192 156 120 138 174 167 151 153 134 124 133 151 139 192 183 141 182 150 219 189 174 138 151 138 143 115 107 129 154 148
110 107 102 158 181 193 221 222 239 281 251 229 227 176 159 175 177 189 204 163 128 144 149 95 121 178 174 199 157 180 148 186 155 167 132 146 160 162 129 124 114 148 146
89 85 79 81 98 171 199 196 236 247 258 210 183 195 196 197 150 175 188 132 140 156 164 133 142 170 160 159 170 171 209 192 184 184 131 172 157 159 153 142 137 138 152
154 218 198 265 249 241 218 241 212 256 229 208 221 191 187 174 175 172 121 90 95 115 126 149 156 168 179 166 193 182 173 181 203 167 207 124 143 179 163 139 145 139 137
520 433 454 534 543 518 535 543 330 311 305 335 285 255 250 229 238 275 173 133 128 96 132 166 192 160 179 205 238 278 240 235 225 294 338 240 180 154 189 168 155 158 150
630 647 596 575 594 622 632 563 512 428 459 424 450 497 422 416 336 188 123 116 115 95 104 132 165 192 227 304 394 260 258 242 331 446 462 384 425 336 360 201 180 188 197
763 730 727 572 515 481 557 609 547 475 430 408 427 406 342 266 237 177 181 130 116 114 104 137 130 149 184 260 327 289 289 402 386 436 530 545 508 522 473 432 271 249 280
736 820 825 861 837 732 583 487 434 401 449 467 445 352 295 203 203 204 165 99 93 127 147 146 164 145 153 184 220 314 345 348 303 411 551 693 703 676 623 512 458 361 356
558 684 666 633 644 619 546 476 346 232 214 340 414 435 328 296 225 180 132 110 106 133 154 168 183 149 139 97 128 184 346 381 585 569 679 636 693 667 597 608 632 609 582
268 262 247 342 416 375 550 430 402 490 435 460 365 292 239 203 226 234 143 95 122 153 130 167 200 239 262 273 230 88 125 511 587 603 693 673 700 916 926 881 795 782 781
129 133 157 204 268 322 432 378 377 306 242 179 163 175 229 155 138 165 132 155 157 163 155 150 162 184 203 207 284 307 234 364 679 644 594 703 775 935 869 896 728 721 726